Probability
0 0 0 0 0 0 0 0 1 2 2 3 4 5 5 5 6 7 9 11 12 12 12 13 14 17 17 16 16 18 19 20 21 20 18 17 14 12 11 9 8 7 5 4
0 0 0 0 0 0 0 0 1 2 2 2 3 4 4 4 4 6 10 12 12 13 14 16 17 19 21 20 20 21 22 22 20 19 18 17 14 12 10 10 9 8 6 6
0 0 0 0 0 0 0 0 0 1 2 2 2 2 2 3 3 5 10 13 13 14 16 19 20 21 23 24 23 23 26 26 22 18 16 16 15 13 11 10 10 9 7 7
0 0 0 0 0 0 0 0 0 0 1 1 1 0 1 1 2 5 10 14 14 15 17 19 21 22 23 24 24 25 28 28 24 19 15 14 15 15 13 12 12 11 9 7
0 0 0 0 0 0 0 0 0 0 0 0 0 0 0 0 1 4 9 13 15 15 16 18 20 21 21 22 22 23 26 27 24 20 17 16 17 17 14 13 13 12 10 9
0 0 0 0 0 0 0 0 0 0 0 0 0 0 1 1 1 3 6 11 14 14 15 17 18 17 18 18 19 21 23 24 23 21 20 20 21 18 15 13 12 10 10 10
0 0 0 0 0 0 0 0 0 0 0 0 0 0 1 2 2 3 5 9 13 14 15 16 15 15 15 16 17 20 21 21 21 19 19 19 19 16 14 12 11 10 10 10
0 0 0 0 0 0 0 0 0 0 0 0 0 0 2 3 3 3 5 9 13 16 17 15 14 14 16 17 17 18 20 20 17 15 14 13 13 11 10 11 12 12 12 12
0 0 0 0 0 0 0 0 0 0 0 0 0 1 2 3 3 4 6 9 13 17 18 16 15 16 18 19 18 17 17 18 17 14 11 10 10 9 10 12 13 13 13 14
0 0 0 0 0 0 0 0 0 0 0 0 0 1 2 3 5 7 9 10 12 16 17 16 16 18 20 20 19 16 16 17 17 14 10 9 10 10 11 12 13 12 12 13
0 0 0 0 0 0 0 0 0 0 0 0 0 1 1 3 6 9 12 11 11 15 16 16 19 22 22 19 17 16 16 16 15 12 9 9 10 12 12 13 12 10 9 11
0 0 0 0 0 0 0 0 0 0 0 0 0 0 1 3 5 9 11 10 12 16 17 18 22 25 23 20 17 16 17 16 14 11 9 9 11 12 13 12 10 9 8 9
0 0 0 0 0 0 0 0 0 0 0 0 0 1 2 3 6 9 9 9 14 19 19 18 21 24 23 21 19 18 17 16 14 11 9 10 11 11 12 11 10 9 9 9
0 0 0 0 0 0 0 0 0 0 0 0 0 1 2 4 7 9 9 10 15 19 19 18 21 22 22 21 19 18 17 16 14 12 10 10 10 9 8 8 9 10 11 10
0 0 0 0 0 0 0 0 0 0 0 0 0 0 2 5 8 10 11 12 12 14 15 18 21 20 19 19 18 17 17 16 15 12 10 9 7 6 5 6 8 9 10 9
0 0 0 0 0 0 0 0 0 0 0 0 0 1 2 4 7 10 12 11 9 8 11 16 19 18 18 16 15 15 16 16 14 11 10 7 5 4 5 6 6 7 7 7
0 0 0 0 0 0 0 0 0 0 0 0 0 1 3 4 5 6 8 8 7 6 8 13 17 18 17 15 13 13 14 14 12 10 8 8 5 5 6 6 6 6 7 8
0 0 0 0 0 0 0 0 0 0 0 0 0 1 3 3 3 3 4 5 5 5 6 10 14 17 16 14 12 12 12 11 10 8 9 9 8 6 6 6 6 7 8 9
1 0 0 0 0 0 0 0 0 0 0 0 0 1 1 1 1 2 3 5 6 5 6 8 11 14 14 13 13 12 10 8 7 7 8 10 10 8 7 6 6 7 9 10
1 0 0 0 0 0 0 0 0 0 0 1 1 0 0 0 1 2 5 7 9 9 10 11 12 14 14 14 14 11 7 6 6 7 8 10 10 8 6 6 6 6 8 10
1 0 0 0 0 0 0 0 0 0 1 2 1 0 0 1 3 4 6 10 12 14 15 15 16 16 15 15 13 10 6 5 5 6 7 8 7 6 4 4 5 5 7 9
0 0 0 0 0 0 0 0 1 2 3 3 2 1 2 4 4 5 8 11 13 15 15 15 16 15 14 14 12 7 4 3 3 3 4 5 5 3 3 3 4 5 6 8
0 0 0 0 0 0 0 1 2 3 4 3 3 2 4 6 6 6 8 12 13 12 12 12 12 13 12 11 9 5 2 1 1 1 1 2 2 1 2 3 4 5 6 6
1 1 1 1 1 0 1 2 2 2 3 3 3 3 4 7 8 8 8 10 11 9 8 9 10 10 9 8 6 4 2 1 1 0 0 0 0 0 1 1 3 4 4 4
2 1 1 2 1 0 1 2 1 1 2 4 4 3 4 6 8 8 8 9 9 9 7 7 9 10 9 8 7 5 4 4 3 1 0 0 0 0 0 1 2 2 2 3
2 1 2 2 1 0 1 1 0 0 2 5 5 2 2 5 7 7 7 8 9 9 7 7 8 9 9 8 7 6 6 5 4 2 1 0 0 0 0 0 1 1 1 1
Wind_Speed
8 9 9 8 7 5 5 6 5 2 2 3 3 2 2 4 5 6 6 6 6 5 5 5 4 4 4 4 4 4 4 3 3 2 3 2 2 2 1 0 1 1 2 2
9 10 6 5 5 6 7 8 5 3 3 3 3 3 2 3 5 5 6 5 5 5 5 5 4 4 4 4 3 4 4 3 3 2 2 2 1 1 0 0 1 1 1 2
9 3 5 7 8 9 9 8 5 3 3 5 5 6 5 4 5 5 6 5 5 5 5 5 5 4 3 3 3 3 3 4 3 2 2 1 1 1 0 1 0 1 1 1
7 4 7 8 9 9 8 5 5 6 8 6 7 6 5 5 6 6 7 6 6 5 5 5 5 4 3 3 4 4 4 4 3 3 2 2 2 1 1 1 0 0 1 0
6 6 8 9 7 8 4 3 6 7 8 6 7 8 4 6 6 6 7 6 5 5 5 5 5 4 3 3 4 4 4 4 4 3 3 3 2 1 0 1 1 1 0 0
5 4 6 5 4 5 5 6 7 8 9 9 6 7 4 4 4 4 6 6 5 5 5 5 5 4 3 3 4 4 5 5 4 4 3 2 1 1 0 1 1 1 1 0
8 7 6 5 6 8 10 9 7 9 8 6 4 7 2 2 1 1 3 5 5 5 5 5 5 5 4 4 4 4 5 5 5 4 3 2 2 2 2 1 1 1 1 0
8 8 7 6 7 6 9 11 8 7 6 4 6 6 2 3 2 1 3 4 5 5 5 5 5 4 4 4 4 4 4 4 4 4 3 3 2 2 1 1 1 1 1 1
5 4 5 4 4 7 8 9 8 9 8 7 5 3 3 4 4 4 4 4 4 4 5 5 5 5 4 4 5 5 5 4 4 4 4 3 2 1 0 1 1 1 1 1
3 4 4 5 6 4 6 5 6 9 8 8 6 7 4 5 4 3 3 3 3 4 4 5 5 5 4 4 5 5 5 4 4 4 3 3 2 2 1 0 0 1 1 1
5 5 5 7 6 5 6 7 7 7 7 8 7 2 3 2 2 2 2 2 2 3 3 4 5 5 5 5 5 5 5 4 4 3 3 3 2 2 1 1 1 1 1 1
4 5 5 4 2 3 6 6 7 7 7 8 8 1 5 3 1 0 1 1 1 3 3 4 5 5 5 5 5 5 4 4 4 3 3 3 2 2 1 1 1 1 1 1
4 5 6 7 7 6 5 5 6 7 7 7 9 2 6 3 2 1 0 0 1 2 3 5 5 5 4 4 4 4 4 4 4 4 3 3 2 2 1 1 1 1 1 1
4 5 7 6 2 3 5 5 6 9 8 8 8 4 1 1 1 1 1 0 1 3 4 4 4 4 4 4 4 4 4 4 4 4 3 3 2 2 1 1 1 1 1 2
5 6 5 4 3 4 6 6 7 8 8 9 6 5 3 2 2 1 1 1 0 2 3 4 4 4 4 4 3 3 3 3 3 3 3 3 2 2 2 1 1 1 1 2
3 4 6 6 5 6 7 7 7 7 7 7 7 4 3 2 1 1 1 1 1 2 3 3 4 4 3 3 3 3 3 3 3 3 3 2 2 2 2 2 2 2 2 2
4 5 7 7 6 8 8 6 6 5 5 6 6 3 2 2 2 2 2 2 1 1 2 3 3 3 3 2 2 2 2 2 3 3 3 3 2 2 2 2 2 2 2 2
4 5 5 6 6 10 0 2 3 4 4 3 2 3 2 2 2 2 2 1 1 1 1 2 3 3 3 3 2 2 2 2 2 3 3 2 3 2 1 1 1 2 2 2
4 5 5 6 9 6 3 2 3 5 4 1 2 2 2 2 2 0 2 2 1 1 1 2 3 3 3 3 3 2 2 2 1 1 2 2 2 2 1 1 1 2 2 2
4 5 7 7 8 6 2 3 1 5 5 2 2 2 1 2 4 1 2 1 0 1 2 2 3 4 4 3 3 2 2 2 1 0 1 1 2 2 1 1 1 1 2 2
7 6 8 8 8 3 4 1 3 6 1 3 2 2 2 2 4 3 1 1 1 1 2 3 3 3 3 3 3 2 2 1 0 0 0 1 1 2 1 1 1 1 1 1
6 6 6 6 8 3 4 1 2 3 4 2 2 2 3 2 2 1 1 1 2 2 3 3 3 3 3 3 3 3 2 1 1 1 0 0 1 1 1 1 1 1 2 2
4 3 3 3 2 4 2 1 2 3 2 2 2 3 2 1 0 1 1 1 2 2 2 2 2 2 3 3 3 3 2 1 1 1 1 1 1 1 1 2 2 2 2 2
3 1 3 3 2 0 0 1 1 2 2 3 2 2 2 2 1 1 1 1 1 2 2 2 3 3 3 2 2 2 2 2 2 1 1 1 1 1 1 1 1 1 1 1
1 3 4 5 2 2 1 1 2 2 2 2 2 2 2 1 2 1 1 1 1 1 1 2 2 2 2 2 2 2 2 2 2 1 1 1 1 1 1 1 0 1 1 2
3 4 5 3 1 3 2 2 2 2 2 2 2 2 2 2 2 2 2 1 1 1 1 1 1 1 1 2 2 1 2 2 2 2 2 2 2 1 2 2 2 1 0 1
Wind_Direction
197 217 215 211 230 265 247 242 231 190 120 221 212 216 171 163 184 185 181 179 174 172 161 156 158 156 159 168 177 187 195 180 198 198 203 195 196 212 218 214 40 323 320 315
201 216 216 213 216 231 231 233 224 171 146 239 213 231 208 190 199 199 195 190 186 174 157 153 157 157 162 167 177 186 188 184 197 192 217 219 224 228 232 304 84 306 308 305
221 180 182 208 207 220 229 240 237 212 179 201 225 222 189 176 197 196 203 199 191 184 174 165 167 167 163 169 178 180 181 177 183 184 191 177 158 179 162 250 178 295 316 323
222 191 197 213 216 228 226 222 233 218 229 215 230 250 183 175 189 194 200 198 191 181 175 171 167 168 169 170 169 168 169 168 167 176 179 191 207 212 222 248 57 342 328 328
199 195 211 223 222 232 246 202 222 229 242 244 223 254 185 177 196 188 186 182 177 175 173 171 166 162 159 160 157 156 160 162 165 171 173 195 206 211 187 194 154 258 217 334
224 204 233 236 219 214 201 194 207 226 235 238 229 253 219 176 191 175 165 163 163 166 167 167 158 150 149 151 154 150 158 166 166 168 168 185 156 141 174 194 198 211 191 143
201 192 197 219 211 193 216 224 221 217 220 228 185 243 240 124 169 192 168 155 156 163 164 164 161 154 150 149 151 150 150 159 158 156 154 161 168 181 198 227 203 249 249 185
207 190 184 203 234 227 220 241 250 257 249 217 189 236 146 123 136 154 164 157 160 164 166 168 165 159 153 152 158 155 152 154 156 154 153 163 184 204 198 246 274 244 263 274
225 191 152 188 228 248 225 235 264 267 267 260 221 205 177 183 187 176 172 173 176 171 170 173 168 164 160 160 160 162 158 159 158 156 154 154 164 168 146 267 274 286 262 223
257 229 177 179 201 203 266 245 236 251 259 259 235 229 213 184 188 179 181 181 169 168 177 173 168 164 160 161 156 160 160 162 159 160 159 142 153 163 157 197 294 308 292 250
243 239 195 194 222 222 209 219 244 257 268 270 265 241 61 146 175 199 194 181 170 171 173 167 164 159 157 159 156 159 154 154 158 155 149 148 157 154 155 166 242 260 263 241
223 254 232 207 189 286 260 250 236 248 249 255 271 224 73 80 91 195 230 188 176 175 163 156 154 153 155 157 157 157 153 156 157 152 154 156 159 155 166 169 217 257 256 244
194 226 222 201 193 201 222 235 249 255 256 253 259 199 99 78 71 75 28 12 169 165 158 154 156 157 151 150 154 152 157 153 151 153 157 153 154 154 163 173 178 199 221 243
241 239 260 265 269 224 227 230 242 252 254 255 260 269 112 13 341 336 359 31 168 160 158 157 156 150 141 143 151 151 152 151 155 157 154 149 151 158 172 174 173 199 216 229
237 233 245 268 274 254 254 254 244 250 270 276 279 278 313 318 302 304 319 322 175 166 161 162 161 149 147 142 138 134 134 141 151 156 152 153 153 158 172 178 185 209 236 234
231 242 234 238 235 242 249 249 245 248 260 268 270 277 359 349 326 304 313 296 225 199 181 171 163 156 156 147 135 128 137 148 156 155 150 145 149 156 177 195 204 209 223 239
210 228 243 238 229 246 241 241 241 236 255 268 276 316 350 324 325 329 316 290 252 209 193 179 170 163 163 160 156 156 150 153 162 161 163 161 170 175 194 213 211 217 227 231
230 236 246 246 231 244 129 71 259 252 258 271 298 327 319 327 325 329 315 302 254 201 192 182 174 165 160 158 164 177 161 162 164 165 166 172 185 182 190 219 240 255 252 244
225 232 245 247 241 239 178 171 238 250 247 285 307 325 330 343 264 199 39 1 289 204 184 183 175 161 156 160 160 170 164 160 160 159 170 186 191 190 194 208 241 256 259 250
186 224 243 243 256 252 112 89 277 255 224 83 340 323 321 280 262 59 53 26 66 146 155 165 166 156 156 161 160 166 164 155 154 174 205 199 199 196 208 225 240 232 240 244
199 214 236 245 251 243 61 43 237 244 11 46 333 311 280 305 347 28 65 114 125 143 156 158 158 153 149 150 160 175 176 169 145 162 210 179 192 202 198 203 228 245 237 220
239 233 229 243 246 216 79 172 259 358 7 356 333 323 319 345 11 45 85 114 127 126 137 143 142 138 141 151 163 168 169 164 142 123 114 130 200 238 172 188 207 231 242 199
248 295 285 284 344 56 77 35 25 357 334 330 324 326 304 283 282 137 134 140 147 136 137 148 144 143 148 161 173 170 160 160 155 154 164 201 216 233 216 206 195 204 215 232
181 240 256 238 202 150 71 65 1 326 319 322 310 296 278 261 224 167 156 146 158 156 154 161 169 161 155 159 168 164 161 172 173 182 196 200 203 212 187 225 223 237 231 227
257 211 237 241 252 256 176 326 331 327 317 317 316 290 275 262 240 213 202 181 182 170 164 179 186 174 166 161 168 167 165 184 198 203 209 225 224 204 206 209 302 285 356 357
239 243 252 263 257 268 273 300 301 302 306 311 304 302 299 278 257 229 214 199 189 175 163 179 196 191 188 179 175 180 187 191 208 226 227 232 238 239 230 199 181 113 217 123